User: anonymous   Login
Location: Unspecified
(0.0000°N, 0.0000°E)
Time: 08:50:35
(UTC+00:00)
Language:

NOSS 2-3 (D) - Orbit

View from above orbital plane
View from above orbital plane
View from above satellite
View from above satellite

Ground track
Ground track

The orbit data is extracted from the following two-line orbital elements,

1 23862U 96029D   17152.93081483 0.00000030  00000-0  18362-4 0    09
2 23862  63.3744  93.3464 0603000  13.0703 346.9297 13.40816319    08
Epoch (UTC): 01 June 2017 22:20:22
Eccentricity: 0.0603000
inclination: 63.3744°
perigee height: 655 km
apogee height: 1557 km
right ascension of ascending node: 93.3464°
argument of perigee: 13.0703°
revolutions per day: 13.40816319
mean anomaly at epoch: 346.9297°
orbit number at epoch: 0

The dashed part of the orbit path shows where the satellite is in the earth's shadow,  

DLR